�������l�o���
Date,Time,MP-1(��Sv/h),MP-2(��Sv/h),MP-3(��Sv/h),MP-4(��Sv/h),MP-5(��Sv/h),MP-6(��Sv/h),MP-7(��Sv/h),MP-8(��Sv/h),����,����(m/s),���J
2017/11/16,00:00,0.931,1.492,0.949,1.770,1.216,0.505,0.921,0.856,�k��,8.8,��
2017/11/16,00:10,0.933,1.494,0.951,1.772,1.219,0.505,0.920,0.856,�k��,7.2,��
2017/11/16,00:20,0.931,1.492,0.951,1.772,1.218,0.506,0.920,0.856,�k��,6.6,��
2017/11/16,00:30,0.931,1.494,0.951,1.772,1.216,0.506,0.919,0.857,���k��,8.5,��
2017/11/16,00:40,0.932,1.496,0.954,1.775,1.217,0.505,0.920,0.856,���k��,6.9,��
2017/11/16,00:50,0.932,1.496,0.950,1.774,1.217,0.505,0.919,0.858,���k��,6.5,��
2017/11/16,01:00,0.933,1.494,0.950,1.771,1.217,0.506,0.919,0.856,���k��,6.1,��
2017/11/16,01:10,0.932,1.497,0.950,1.772,1.218,0.506,0.919,0.856,���k��,4.6,��
2017/11/16,01:20,0.931,1.498,0.950,1.774,1.219,0.506,0.918,0.858,��,5.9,��
2017/11/16,01:30,0.932,1.492,0.951,1.772,1.219,0.506,0.919,0.854,��,5.6,��
2017/11/16,01:40,0.932,1.497,0.951,1.774,1.218,0.506,0.921,0.857,��,6.1,��
2017/11/16,01:50,0.932,1.494,0.949,1.772,1.214,0.504,0.921,0.854,��,3.7,��
2017/11/16,02:00,0.930,1.495,0.950,1.774,1.216,0.504,0.921,0.855,��,1.2,��
2017/11/16,02:10,0.932,1.493,0.949,1.772,1.217,0.504,0.921,0.856,�k�k��,0.9,��
2017/11/16,02:20,0.932,1.494,0.950,1.771,1.217,0.506,0.921,0.856,�k�k��,2.0,��
2017/11/16,02:30,0.933,1.493,0.951,1.773,1.215,0.504,0.921,0.856,��,2.3,��
2017/11/16,02:40,0.930,1.494,0.951,1.771,1.217,0.506,0.920,0.858,�k��,2.6,��
2017/11/16,02:50,0.929,1.493,0.949,1.774,1.217,0.505,0.920,0.857,�k��,2.3,��
2017/11/16,03:00,0.931,1.495,0.949,1.774,1.219,0.504,0.920,0.855,��,0.8,��
2017/11/16,03:10,0.933,1.493,0.949,1.773,1.215,0.506,0.921,0.855,���k��,3.3,��
2017/11/16,03:20,0.930,1.494,0.949,1.773,1.217,0.505,0.921,0.855,�k��,3.6,��
2017/11/16,03:30,0.930,1.491,0.949,1.773,1.214,0.506,0.918,0.855,�k�k��,3.0,��
2017/11/16,03:40,0.931,1.497,0.950,1.769,1.216,0.505,0.922,0.855,�k�k��,4.2,��
2017/11/16,03:50,0.932,1.493,0.950,1.773,1.216,0.504,0.922,0.855,�k��,2.6,��
2017/11/16,04:00,0.931,1.494,0.949,1.773,1.217,0.503,0.921,0.856,�k�k��,3.7,��
2017/11/16,04:10,0.932,1.493,0.951,1.772,1.216,0.506,0.920,0.854,�k��,8.1,��
2017/11/16,04:20,0.930,1.495,0.952,1.774,1.218,0.505,0.920,0.856,�k�k��,8.2,��
2017/11/16,04:30,0.932,1.494,0.950,1.772,1.217,0.506,0.922,0.856,�k��,5.6,��
2017/11/16,04:40,0.931,1.491,0.947,1.774,1.215,0.505,0.922,0.855,�k��,8.1,��
2017/11/16,04:50,0.930,1.493,0.951,1.774,1.218,0.505,0.921,0.855,�k��,10.2,��
2017/11/16,05:00,0.931,1.494,0.950,1.772,1.216,0.503,0.921,0.857,���k��,11.7,��
2017/11/16,05:10,0.928,1.495,0.951,1.774,1.218,0.504,0.922,0.856,��,10.6,��
2017/11/16,05:20,0.930,1.493,0.951,1.773,1.218,0.503,0.920,0.855,���k��,9.8,��
2017/11/16,05:30,0.930,1.492,0.950,1.774,1.219,0.503,0.920,0.857,���k��,8.9,��
2017/11/16,05:40,0.929,1.493,0.950,1.770,1.216,0.503,0.920,0.854,���k��,7.3,��
2017/11/16,05:50,0.929,1.494,0.948,1.772,1.219,0.504,0.920,0.856,���k��,6.0,��
2017/11/16,06:00,0.930,1.493,0.949,1.772,1.215,0.503,0.921,0.854,�k��,6.4,��
2017/11/16,06:10,0.930,1.493,0.949,1.770,1.213,0.501,0.920,0.857,�k��,6.9,��
2017/11/16,06:20,0.930,1.493,0.949,1.775,1.214,0.505,0.920,0.856,�k�k��,5.3,��
2017/11/16,06:30,0.929,1.491,0.949,1.771,1.215,0.505,0.921,0.856,���k��,4.5,��
2017/11/16,06:40,0.930,1.495,0.947,1.772,1.215,0.503,0.918,0.856,���k��,3.7,��
2017/11/16,06:50,0.930,1.493,0.948,1.769,1.217,0.503,0.919,0.854,��,1.7,��
2017/11/16,07:00,0.929,1.494,0.947,1.770,1.217,0.503,0.919,0.855,���k��,0.9,��
2017/11/16,07:10,0.928,1.494,0.949,1.773,1.215,0.503,0.918,0.854,�k,2.2,��
2017/11/16,07:20,0.931,1.493,0.947,1.772,1.215,0.503,0.918,0.854,�k�k��,6.5,��
2017/11/16,07:30,0.928,1.495,0.948,1.770,1.215,0.504,0.920,0.856,�k��,8.2,��
2017/11/16,07:40,0.931,1.496,0.949,1.772,1.214,0.504,0.920,0.856,�k�k��,6.9,��
2017/11/16,07:50,0.931,1.495,0.948,1.774,1.215,0.503,0.922,0.856,�k��,6.3,��
2017/11/16,08:00,0.932,1.496,0.948,1.776,1.214,0.504,0.920,0.857,�k��,5.1,��
2017/11/16,08:10,0.930,1.494,0.949,1.776,1.214,0.504,0.921,0.854,���k��,5.1,��
2017/11/16,08:20,0.930,1.496,0.949,1.773,1.216,0.502,0.923,0.854,�k��,7.7,��
2017/11/16,08:30,0.930,1.494,0.949,1.776,1.216,0.503,0.923,0.855,�k��,6.7,��
2017/11/16,08:40,0.930,1.493,0.949,1.771,1.215,0.503,0.918,0.856,�k��,9.6,��
2017/11/16,08:50,0.929,1.492,0.950,1.774,1.216,0.503,0.918,0.855,�k�k��,6.7,��
2017/11/16,09:00,0.928,1.490,0.947,1.772,1.215,0.503,0.917,0.855,�k�k��,9.3,��
2017/11/16,09:10,0.929,1.494,0.949,1.775,1.216,0.503,0.919,0.856,�k�k��,11.0,��
2017/11/16,09:20,0.931,1.489,0.946,1.771,1.217,0.503,0.919,0.857,�k��,9.2,��
2017/11/16,09:30,0.930,1.492,0.944,1.773,1.217,0.502,0.919,0.855,�k�k��,10.8,��
2017/11/16,09:40,0.929,1.490,0.947,1.775,1.216,0.505,0.917,0.857,�k��,9.1,��
2017/11/16,09:50,0.931,1.489,0.947,1.779,1.215,0.503,0.916,0.855,�k�k��,9.1,��
2017/11/16,10:00,0.930,1.491,0.949,1.778,1.220,0.502,0.914,0.855,�k�k��,7.8,��
2017/11/16,10:10,0.934,1.492,0.949,1.774,1.218,0.504,0.918,0.855,�k�k��,10.0,��
2017/11/16,10:20,0.931,1.491,0.947,1.775,1.217,0.503,0.915,0.855,�k�k��,6.8,��
2017/11/16,10:30,0.934,1.493,0.948,1.776,1.217,0.505,0.916,0.855,�k��,7.9,��
2017/11/16,10:40,0.932,1.489,0.948,1.775,1.216,0.504,0.917,0.857,�k,7.5,��
2017/11/16,10:50,0.931,1.491,0.948,1.778,1.218,0.504,0.918,0.859,�k�k��,7.3,��
2017/11/16,11:00,0.934,1.491,0.946,1.776,1.219,0.503,0.917,0.857,�k�k��,6.7,��
2017/11/16,11:10,0.931,1.491,0.950,1.776,1.217,0.502,0.917,0.857,�k�k��,9.0,��
2017/11/16,11:20,0.934,1.493,0.946,1.780,1.220,0.503,0.918,0.856,�k,8.3,��
2017/11/16,11:30,0.934,1.491,0.948,1.778,1.218,0.503,0.916,0.857,�k�k��,8.0,��
2017/11/16,11:40,0.932,1.492,0.948,1.778,1.218,0.503,0.917,0.857,�k,7.4,��
2017/11/16,11:50,0.932,1.494,0.947,1.778,1.222,0.503,0.919,0.857,�k,9.2,��
2017/11/16,12:00,0.933,1.495,0.947,1.780,1.218,0.503,0.918,0.857,�k�k��,7.4,��
2017/11/16,12:10,0.931,1.495,0.948,1.777,1.220,0.504,0.918,0.858,�k�k��,7.2,��
2017/11/16,12:20,0.931,1.499,0.946,1.779,1.218,0.504,0.917,0.858,�k�k��,6.7,��
2017/11/16,12:30,0.931,1.496,0.948,1.777,1.219,0.505,0.916,0.859,�k��,8.1,��
2017/11/16,12:40,0.932,1.495,0.947,1.779,1.221,0.506,0.918,0.859,���k��,8.6,��
2017/11/16,12:50,0.931,1.497,0.950,1.782,1.221,0.504,0.918,0.859,�k��,7.4,��
2017/11/16,13:00,0.933,1.497,0.946,1.780,1.222,0.503,0.917,0.856,�k��,7.8,��
2017/11/16,13:10,0.933,1.493,0.950,1.780,1.220,0.504,0.918,0.855,�k�k��,7.8,��
2017/11/16,13:20,0.932,1.495,0.950,1.780,1.217,0.503,0.918,0.853,�k�k��,8.9,��
2017/11/16,13:30,0.931,1.494,0.948,1.781,1.220,0.502,0.918,0.853,�k��,9.3,��
2017/11/16,13:40,0.932,1.495,0.949,1.781,1.221,0.504,0.919,0.852,�k��,9.0,��
2017/11/16,13:50,0.933,1.493,0.947,1.779,1.219,0.504,0.920,0.853,�k��,9.4,��
2017/11/16,14:00,0.933,1.493,0.950,1.778,1.223,0.503,0.917,0.853,�k��,10.5,��
2017/11/16,14:10,0.934,1.494,0.951,1.778,1.219,0.503,0.917,0.851,�k��,10.2,��
2017/11/16,14:20,0.936,1.497,0.951,1.781,1.222,0.503,0.915,0.853,�k��,9.3,��
2017/11/16,14:30,0.935,1.497,0.951,1.779,1.223,0.502,0.918,0.854,�k��,9.7,��
2017/11/16,14:40,0.935,1.498,0.951,1.782,1.224,0.505,0.919,0.854,�k��,7.9,��
2017/11/16,14:50,0.933,1.501,0.952,1.783,1.223,0.503,0.916,0.856,�k��,8.8,��
2017/11/16,15:00,0.932,1.502,0.951,1.781,1.223,0.504,0.918,0.857,���k��,8.3,��
2017/11/16,15:10,0.933,1.503,0.951,1.779,1.221,0.504,0.919,0.857,�k��,9.1,��
2017/11/16,15:20,0.934,1.503,0.954,1.779,1.222,0.503,0.917,0.858,�k��,11.6,��
2017/11/16,15:30,0.934,1.503,0.953,1.782,1.220,0.504,0.919,0.857,�k��,10.4,��
2017/11/16,15:40,0.931,1.501,0.953,1.782,1.221,0.505,0.918,0.856,�k��,9.3,��
2017/11/16,15:50,0.932,1.501,0.953,1.781,1.224,0.502,0.918,0.857,�k��,8.5,��
2017/11/16,16:00,0.933,1.498,0.951,1.778,1.223,0.503,0.919,0.856,���k��,8.7,��
2017/11/16,16:10,0.932,1.498,0.952,1.783,1.222,0.504,0.920,0.856,�k��,8.3,��
2017/11/16,16:20,0.931,1.503,0.950,1.778,1.223,0.503,0.920,0.857,�k��,7.6,��
2017/11/16,16:30,0.932,1.501,0.952,1.779,1.226,0.503,0.919,0.856,�k��,6.3,��
2017/11/16,16:40,0.933,1.503,0.950,1.780,1.224,0.504,0.918,0.856,���k��,6.0,��
2017/11/16,16:50,0.931,1.502,0.952,1.779,1.223,0.503,0.919,0.854,�k��,8.3,��
2017/11/16,17:00,0.931,1.500,0.951,1.780,1.220,0.503,0.918,0.857,�k��,7.3,��
2017/11/16,17:10,0.931,1.501,0.951,1.781,1.223,0.504,0.919,0.856,�k��,5.7,��
2017/11/16,17:20,0.931,1.502,0.951,1.777,1.220,0.504,0.918,0.858,�k��,7.0,��
2017/11/16,17:30,0.930,1.501,0.952,1.780,1.225,0.503,0.918,0.855,�k��,7.2,��
2017/11/16,17:40,0.931,1.501,0.952,1.779,1.224,0.503,0.918,0.855,�k��,6.6,��
2017/11/16,17:50,0.931,1.502,0.950,1.779,1.222,0.502,0.919,0.854,�k��,6.6,��
2017/11/16,18:00,0.930,1.501,0.950,1.778,1.222,0.502,0.918,0.855,�k��,6.5,��
2017/11/16,18:10,0.930,1.501,0.951,1.779,1.223,0.502,0.918,0.855,���k��,7.8,��
2017/11/16,18:20,0.929,1.501,0.950,1.778,1.223,0.503,0.919,0.855,�k��,7.6,��
2017/11/16,18:30,0.931,1.502,0.950,1.780,1.221,0.502,0.919,0.855,���k��,6.1,��
2017/11/16,18:40,0.930,1.502,0.951,1.781,1.221,0.503,0.918,0.857,���k��,6.0,��
2017/11/16,18:50,0.929,1.501,0.951,1.778,1.223,0.503,0.917,0.854,���k��,6.7,��
2017/11/16,19:00,0.930,1.500,0.950,1.775,1.224,0.502,0.918,0.856,���k��,6.6,��
2017/11/16,19:10,0.927,1.499,0.948,1.778,1.221,0.502,0.919,0.856,���k��,7.5,��
2017/11/16,19:20,0.928,1.501,0.951,1.779,1.223,0.502,0.917,0.856,���k��,7.5,��
2017/11/16,19:30,0.929,1.499,0.951,1.778,1.221,0.502,0.918,0.854,���k��,7.6,��
2017/11/16,19:40,0.931,1.499,0.951,1.776,1.222,0.502,0.920,0.856,���k��,7.9,��
2017/11/16,19:50,0.932,1.501,0.952,1.778,1.220,0.502,0.917,0.855,���k��,6.8,��
2017/11/16,20:00,0.930,1.499,0.951,1.780,1.223,0.503,0.916,0.855,���k��,6.5,��
2017/11/16,20:10,0.929,1.501,0.951,1.775,1.223,0.502,0.917,0.855,���k��,5.3,��
2017/11/16,20:20,0.929,1.498,0.951,1.778,1.219,0.503,0.918,0.854,���k��,4.7,��
2017/11/16,20:30,0.930,1.500,0.950,1.777,1.221,0.501,0.918,0.854,���k��,4.3,��
2017/11/16,20:40,0.931,1.502,0.951,1.779,1.221,0.501,0.919,0.853,���k��,4.2,��
2017/11/16,20:50,0.930,1.501,0.949,1.775,1.222,0.501,0.918,0.854,��,2.9,��
2017/11/16,21:00,0.928,1.498,0.950,1.777,1.222,0.502,0.918,0.857,���쐼,3.5,��
2017/11/16,21:10,0.928,1.498,0.950,1.778,1.221,0.501,0.917,0.853,��,3.0,��
2017/11/16,21:20,0.931,1.498,0.947,1.777,1.219,0.504,0.917,0.854,��,3.9,��
2017/11/16,21:30,0.929,1.498,0.948,1.778,1.220,0.502,0.918,0.855,��,3.8,��
2017/11/16,21:40,0.930,1.500,0.950,1.779,1.220,0.502,0.918,0.855,��,2.9,��
2017/11/16,21:50,0.929,1.501,0.948,1.776,1.222,0.502,0.916,0.854,���k��,3.1,��
2017/11/16,22:00,0.927,1.498,0.949,1.777,1.221,0.502,0.917,0.854,��,3.3,��
2017/11/16,22:10,0.931,1.499,0.948,1.778,1.221,0.503,0.917,0.855,���k��,3.8,��
2017/11/16,22:20,0.929,1.499,0.949,1.776,1.220,0.501,0.916,0.853,���k��,4.4,��
2017/11/16,22:30,0.930,1.500,0.948,1.776,1.221,0.502,0.917,0.853,���k��,4.8,��
2017/11/16,22:40,0.931,1.501,0.949,1.779,1.222,0.500,0.917,0.853,��,4.2,��
2017/11/16,22:50,0.931,1.498,0.950,1.779,1.222,0.503,0.917,0.854,���k��,8.6,��
2017/11/16,23:00,0.930,1.498,0.950,1.776,1.220,0.501,0.919,0.855,���k��,8.6,��
2017/11/16,23:10,0.929,1.497,0.951,1.777,1.221,0.502,0.917,0.855,��,6.2,��
2017/11/16,23:20,0.929,1.499,0.951,1.776,1.221,0.502,0.915,0.855,���k��,5.8,��
2017/11/16,23:30,0.930,1.502,0.949,1.779,1.220,0.503,0.917,0.854,���k��,4.7,��
2017/11/16,23:40,0.928,1.499,0.950,1.778,1.223,0.502,0.916,0.854,��,2.3,��
2017/11/16,23:50,0.930,1.499,0.952,1.779,1.221,0.502,0.914,0.856,��,3.3,��
